Location: Pinawa
(50.1500°N, 95.8830°W)
Time: 11:46:00
(UTC-06:00)

ISS - All Passes

Search period start: 10 February 2016 00:00
Search period end: 20 February 2016 00:00
Orbit: 399 x 408 km, 51.6° (Epoch: 10 February)

Date Brightness Start Highest point End Pass type
(mag) Time Alt. Az. Time Alt. Az. Time Alt. Az.
10 Feb - 16:02:00 10° SSW 16:04:32 21° SE 16:07:05 10° E daylight
10 Feb - 17:37:24 10° WSW 17:40:39 81° SSE 17:43:54 10° ENE daylight
10 Feb - 19:13:58 10° W 19:17:13 64° N 19:20:27 10° E visible
10 Feb - 20:50:29 10° WNW 20:53:44 68° SSW 20:56:57 10° ESE visible
10 Feb - 22:27:34 10° W 22:29:44 17° SW 22:31:54 10° S night (unlit)
11 Feb - 15:10:28 10° SSE 15:12:07 13° SE 15:13:46 10° ESE daylight
11 Feb - 16:44:50 10° SW 16:48:02 57° SSE 16:51:14 10° ENE daylight
11 Feb - 18:21:16 10° W 18:24:29 66° N 18:27:44 10° E visible
11 Feb - 19:57:49 10° WNW 20:01:04 89° N 20:04:20 10° ESE visible
11 Feb - 21:34:29 10° W 21:37:16 26° SW 21:40:02 10° SSE visible
12 Feb - 15:52:24 10° SW 15:55:26 37° SSE 15:58:29 10° E daylight
12 Feb - 17:28:31 10° W 17:31:46 75° N 17:35:02 10° ENE daylight
12 Feb - 19:05:07 10° WNW 19:08:22 73° N 19:11:38 10° E visible
12 Feb - 20:41:39 10° W 20:44:44 40° SSW 20:47:48 10° SE visible
13 Feb - 15:00:12 10° SSW 15:02:54 24° SE 15:05:36 10° E daylight
13 Feb - 16:35:49 10° WSW 16:39:04 88° SSE 16:42:20 10° ENE daylight
13 Feb - 18:12:24 10° W 18:15:38 65° N 18:18:52 10° E visible
13 Feb - 19:48:54 10° WNW 19:52:08 61° SSW 19:55:20 10° ESE visible
13 Feb - 21:26:13 10° WSW 21:28:04 14° SW 21:29:55 10° S visible
14 Feb - 14:08:24 10° S 14:10:25 15° SE 14:12:26 10° E daylight
14 Feb - 15:43:09 10° WSW 15:46:23 64° SSE 15:49:37 10° ENE daylight
14 Feb - 17:19:38 10° W 17:22:53 65° N 17:26:07 10° E daylight
14 Feb - 18:56:11 10° WNW 18:59:27 85° SSW 19:02:42 10° ESE visible
14 Feb - 20:32:57 10° W 20:35:35 23° SW 20:38:13 10° SSE visible
15 Feb - 14:50:38 10° SW 14:53:44 43° SSE 14:56:51 10° E daylight
15 Feb - 16:26:52 10° W 16:30:08 71° N 16:33:23 10° ENE daylight
15 Feb - 18:03:27 10° WNW 18:06:43 77° N 18:09:58 10° E daylight
15 Feb - 19:40:01 10° W 19:43:02 35° SSW 19:46:02 10° SE visible
16 Feb - 13:58:19 10° SSW 14:01:09 28° SSE 14:04:00 10° E daylight
16 Feb - 15:34:06 10° WSW 15:37:22 86° NNW 15:40:38 10° ENE daylight
16 Feb - 17:10:42 10° WNW 17:13:57 67° N 17:17:12 10° E daylight
16 Feb - 18:47:13 10° WNW 18:50:24 54° SSW 18:53:34 10° SE visible
16 Feb - 20:24:50 10° WSW 20:26:17 12° SW 20:27:43 10° SSW visible
17 Feb - 13:06:18 10° S 13:08:36 18° SE 13:10:54 10° E daylight
17 Feb - 14:41:24 10° WSW 14:44:38 71° SSE 14:47:53 10° ENE daylight
17 Feb - 16:17:55 10° W 16:21:10 64° N 16:24:24 10° E daylight
17 Feb - 17:54:27 10° WNW 17:57:42 77° SSW 18:00:56 10° ESE daylight
17 Feb - 19:31:20 10° W 19:33:47 20° SW 19:36:14 10° SSE visible
18 Feb - 12:15:11 10° SSE 12:16:06 11° SE 12:17:02 10° ESE daylight
18 Feb - 13:48:47 10° SW 13:51:57 48° SSE 13:55:06 10° ENE daylight
18 Feb - 15:25:06 10° W 15:28:21 69° N 15:31:37 10° ENE daylight
18 Feb - 17:01:41 10° WNW 17:04:57 81° NNE 17:08:12 10° ESE daylight
18 Feb - 18:38:17 10° W 18:41:12 31° SSW 18:44:06 10° SSE visible
19 Feb - 12:56:20 10° SSW 12:59:17 32° SSE 13:02:14 10° E daylight
19 Feb - 14:32:17 10° W 14:35:33 81° NNW 14:38:50 10° ENE daylight
19 Feb - 16:08:54 10° WNW 16:12:09 69° N 16:15:23 10° E daylight
19 Feb - 17:45:24 10° WNW 17:48:33 47° SSW 17:51:41 10° SE daylight
19 Feb - 19:23:38 10° WSW 19:24:22 11° SW 19:25:07 10° SSW visible
